Content
SEND FEEDBACK

Daily
Averages
Monthly
Summary
Mexico

CANCUN, QUINTANA ROO


Home > North America > Mexico > Quintana Roo
Elevation: 9 meters     Latitude: 21 09N     Longitude: 086 49W

WEATHER
 
SELECT A DAY
Number of Records: 163,723;   Date Range: 1/1/95 - 7/28/14
 
SHARE

PRINT THIS DATA

[ ← Previous Day ]
WEATHER ALMANAC - 4 JULY, 2014
[ Next Day → ]
[ °F ]   °C
Weather ElementAverageHighLow
Temperature28.2 °C31 °C (11:46 am)25 °C (5:46 am)
Dewpoint24.7 °C26 °C (7:43 am)24 °C (3:48 am)
Humidity81.9 %94 % (1:44 am)66 % (1:44 pm)
Barometer1018.3 hPa1019.6 hPa (10:43 am)1016.3 hPa (3:48 am)
Wind Speed8.4 km/h18.5 km/h (2:42 pm)
Weather ElementAverage
Visibility11.3 km
Wind DirectionENE (74.3 °)

Weather ElementTotal
Precipitation---
Cooling Degree Days9.7 (Base 18.3)
Growing Degree Days18 (Base 10)
Averaged from 23 records on 4 July, 2014
WEATHER CONDITIONS BREAKOUT
WIND DIRECTION BREAKOUT
WEATHER BY HOUR - 4 JULY, 2014
[ °F ]   °C
Local TimeTemperatureDewpointHumidityBarometerVisibilityWind DirectionWind SpeedGust SpeedPrecipitationEventsConditions
1:44 AM26 °C25 °C94 %1018.3 hPa11.3 kmESE (120°)9.3 km/hMostly Cloudy
2:43 AM26 °C25 °C94 %1017.9 hPa11.3 kmESE (120°)9.3 km/hMostly Cloudy
3:48 AM26 °C24 °C89 %1016.3 hPa11.3 kmESE (110°)9.3 km/hMostly Cloudy
4:47 AM26 °C24 °C89 %1017.9 hPa11.3 kmCalmScattered Clouds
5:46 AM25 °C24 °C94 %1017.9 hPa11.3 kmCalmScattered Clouds
6:45 AM25 °C24 °C94 %1017.3 hPa11.3 kmCalmScattered Clouds
7:43 AM28 °C26 °C89 %1018.6 hPa11.3 kmCalmMostly Cloudy
8:44 AM29 °C25 °C79 %1019.3 hPa11.3 kmEast (80°)11.1 km/hMostly Cloudy
9:43 AM30 °C25 °C74 %1018.6 hPa11.3 kmEast (80°)13 km/hMostly Cloudy
10:43 AM30 °C25 °C74 %1019.6 hPa11.3 kmEast (90°)9.3 km/hMostly Cloudy
11:46 AM31 °C25 °C70 %1019.6 hPa11.3 kmEast (90°)11.1 km/hMostly Cloudy
12:41 PM31 °C25 °C70 %1018.6 hPa11.3 kmENE (70°)11.1 km/hMostly Cloudy
1:44 PM31 °C24 °C66 %1019 hPa11.3 kmNE (50°)16.7 km/hMostly Cloudy
2:42 PM31 °C25 °C70 %1018.6 hPa11.3 kmENE (60°)18.5 km/hMostly Cloudy
3:40 PM31 °C25 °C70 %1017.3 hPa11.3 kmESE (110°)9.3 km/hMostly Cloudy
4:41 PM30 °C24 °C70 %1017.6 hPa11.3 kmEast (90°)11.1 km/hScattered Clouds
5:45 PM29 °C24 °C74 %1017.6 hPa11.3 kmENE (60°)13 km/hScattered Clouds
6:43 PM28 °C25 °C84 %1016.9 hPa11.3 kmNE (50°)7.4 km/hMostly Cloudy
7:41 PM28 °C25 °C84 %1017.9 hPa11.3 kmNE (40°)5.6 km/hScattered Clouds
8:44 PM27 °C25 °C89 %1018.3 hPa11.3 kmNorth (360°)9.3 km/hScattered Clouds
9:46 PM27 °C25 °C89 %1017.9 hPa11.3 kmNE (40°)5.6 km/hMostly Cloudy
10:43 PM27 °C25 °C89 %1019.3 hPa11.3 kmNE (50°)5.6 km/hMostly Cloudy
11:42 PM27 °C25 °C89 %1019.3 hPa11.3 kmNE (40°)5.6 km/hMostly Cloudy
Hourly data recorded from MMUN, located 0 kilometers away from Cancun, Quintana Roo







STORIES FROM OUR PARTNERS